Weather in Namlea

Indonesia     3°15′19″S   127°03′59″E
temp.,
°C
wind,
m/s
gust,
m/s
humid.,
%
clouds,
%
prec.,
mm/h
press.,
hPa
HPBL,
m
29 may, sun
sun2900:00+23sw229446 0.0 101038
03:00+23sw1295100 0.0 100937
06:00+22sw119585 0.6 100933
09:00+27sw117971 0.6 1011274
12:00+30nne2262100 0.0 10091182
15:00+29nne336588 1.3 10071042
18:00+26n238299 1.5 1009120
21:00+24w118786 1.6 101147
30 may, mon
mon3000:00+24w1188100 0.0 101036
03:00+24w1187100 0.0 100938
06:00+23sw119268 0.4 100925
09:00+27ssw117798 0.4 1011329
12:00+31nne125899 0.0 10091215
15:00+28nne3473100 1.3 1008697
18:00+25nne2388100 3.8 100886
21:00+24e0193100 9.1 101145
31 may, tue
tue3100:00+24sw1194100 0.6 101058
03:00+24sw1195100 0.6 100942
06:00+23sw129697 0.0 100937
09:00+26ssw1183100 0.0 1011259
12:00+30ene1264100 0.0 10101142
15:00+28e3376100 3.0 1008622
18:00+26e0186100 2.6 100836
21:00+24sw1192100 3.1 101128
1 june, wed
wed100:00+23ssw1194100 0.0 101132
03:00+23sw119579 0.0 100935
06:00+22ssw2295100 0.0 101042
09:00+26ssw12795 0.0 1012294
12:00+30ene22615 0.0 10101149
15:00+29ene436711 0.2 1008869
18:00+27ne238122 0.4 1009126
21:00+25sw008795 0.5 101163
2 june, thu
thu200:00+23sw229461 0.0 101038
03:00+23ssw229545 0.0 100946
06:00+23sw22935 0.0 101037
09:00+27ssw117348 0.0 1011337
12:00+31ene226014 0.0 10091274
15:00+29ene3368100 0.9 1007794
18:00+25ene1287100 3.1 100948
21:00+24s119296 4.1 101040